Time,TemperatureF,DewpointF,PressureIn,WindDirection,WindDirectionDegrees,WindSpeedMPH,WindSpeedGustMPH,Humidity,HourlyPrecipIn,Conditions,Clouds,dailyrainin,SolarRadiationWatts/m^2,SoftwareType,DateUTC
2013-07-28 00:02:00,60.3,53.1,29.93,WNW,303,0.0,0.0,77,0.00,,---,0.00,0.00,VWS V14.01,2013-07-28 07:02:00,
2013-07-28 00:07:00,60.1,52.9,29.93,WNW,303,0.0,0.0,77,0.00,,---,0.00,0.00,VWS V14.01,2013-07-28 07:07:00,
2013-07-28 00:12:00,59.9,53.0,29.93,WNW,303,0.0,0.0,78,0.00,,---,0.00,0.00,VWS V14.01,2013-07-28 07:12:00,
2013-07-28 00:17:00,59.7,52.8,29.93,WNW,303,0.0,0.0,78,0.00,,---,0.00,0.00,VWS V14.01,2013-07-28 07:17:00,
2013-07-28 00:22:00,59.5,53.0,29.93,WNW,303,0.0,0.0,79,0.00,,---,0.00,0.00,VWS V14.01,2013-07-28 07:22:00,
2013-07-28 00:27:00,59.3,53.1,29.93,WNW,303,0.0,0.0,80,0.00,,---,0.00,0.00,VWS V14.01,2013-07-28 07:27:00,
2013-07-28 00:33:00,59.1,52.9,29.93,WNW,303,0.0,0.0,80,0.00,,---,0.00,0.00,VWS V14.01,2013-07-28 07:33:00,
2013-07-28 00:38:00,59.0,52.8,29.93,WNW,303,0.0,0.0,80,0.00,,---,0.00,0.00,VWS V14.01,2013-07-28 07:38:00,
2013-07-28 00:43:00,59.0,52.8,29.93,WNW,303,0.0,0.0,80,0.00,,---,0.00,0.00,VWS V14.01,2013-07-28 07:43:00,
2013-07-28 00:48:00,58.8,52.7,29.93,WNW,303,0.0,0.0,80,0.00,,---,0.00,0.00,VWS V14.01,2013-07-28 07:48:00,
2013-07-28 00:53:00,58.6,52.5,29.93,WNW,303,0.0,0.0,80,0.00,,---,0.00,0.00,VWS V14.01,2013-07-28 07:53:00,
2013-07-28 00:58:00,58.3,52.2,29.93,WNW,303,0.0,0.0,80,0.00,,---,0.00,0.00,VWS V14.01,2013-07-28 07:58:00,
2013-07-28 01:03:00,58.1,52.0,29.93,WNW,303,0.0,0.0,80,0.00,,---,0.00,0.00,VWS V14.01,2013-07-28 08:03:00,
2013-07-28 01:08:00,57.9,51.8,29.93,WNW,303,0.0,0.0,80,0.00,,---,0.00,0.00,VWS V14.01,2013-07-28 08:08:00,
2013-07-28 01:13:00,57.7,51.2,29.93,WNW,303,0.0,0.0,79,0.00,,---,0.00,0.00,VWS V14.01,2013-07-28 08:13:00,
2013-07-28 01:18:00,57.5,51.0,29.92,WNW,303,0.0,0.0,79,0.00,,---,0.00,0.00,VWS V14.01,2013-07-28 08:18:00,
2013-07-28 01:23:00,57.3,50.8,29.92,WNW,303,0.0,0.0,79,0.00,,---,0.00,0.00,VWS V14.01,2013-07-28 08:23:00,
2013-07-28 01:28:00,57.1,50.7,29.92,WNW,303,0.0,0.0,79,0.00,,---,0.00,0.00,VWS V14.01,2013-07-28 08:28:00,
2013-07-28 01:33:00,57.0,50.9,29.92,WNW,303,0.0,0.0,80,0.00,,---,0.00,0.00,VWS V14.01,2013-07-28 08:33:00,
2013-07-28 01:38:00,56.9,50.8,29.93,WNW,303,0.0,0.0,80,0.00,,---,0.00,0.00,VWS V14.01,2013-07-28 08:38:00,
2013-07-28 01:43:00,56.8,50.7,29.92,WNW,303,0.0,0.0,80,0.00,,---,0.00,0.00,VWS V14.01,2013-07-28 08:43:00,
2013-07-28 01:48:00,56.7,50.9,29.92,WNW,303,0.0,0.0,81,0.00,,---,0.00,0.00,VWS V14.01,2013-07-28 08:48:00,
2013-07-28 01:53:00,56.7,51.3,29.92,WNW,303,0.0,0.0,82,0.00,,---,0.00,0.00,VWS V14.01,2013-07-28 08:53:00,
2013-07-28 01:58:00,56.6,51.2,29.92,WNW,303,0.0,0.0,82,0.00,,---,0.00,0.00,VWS V14.01,2013-07-28 08:58:00,
2013-07-28 02:03:00,56.5,51.1,29.92,WNW,303,0.0,0.0,82,0.00,,---,0.00,0.00,VWS V14.01,2013-07-28 09:03:00,
2013-07-28 02:08:00,56.4,51.3,29.93,WNW,303,0.0,0.0,83,0.00,,---,0.00,0.00,VWS V14.01,2013-07-28 09:08:00,
2013-07-28 02:13:00,56.3,51.5,29.92,WNW,303,0.0,0.0,84,0.00,,---,0.00,0.00,VWS V14.01,2013-07-28 09:13:00,
2013-07-28 02:18:00,56.2,51.4,29.92,WNW,303,0.0,0.0,84,0.00,,---,0.00,0.00,VWS V14.01,2013-07-28 09:18:00,
2013-07-28 02:23:00,56.1,51.3,29.92,WNW,303,0.0,0.0,84,0.00,,---,0.00,0.00,VWS V14.01,2013-07-28 09:23:00,
2013-07-28 02:28:00,56.1,51.7,29.92,WNW,303,0.0,0.0,85,0.00,,---,0.00,0.00,VWS V14.01,2013-07-28 09:28:00,
2013-07-28 02:33:00,56.1,51.7,29.92,WNW,303,0.0,0.0,85,0.00,,---,0.00,0.00,VWS V14.01,2013-07-28 09:33:00,
2013-07-28 02:38:00,56.1,51.7,29.92,WNW,303,0.0,0.0,85,0.00,,---,0.00,0.00,VWS V14.01,2013-07-28 09:38:00,
2013-07-28 02:43:00,56.2,51.8,29.92,WNW,303,0.0,0.0,85,0.00,,---,0.00,0.00,VWS V14.01,2013-07-28 09:43:00,
2013-07-28 02:48:00,56.2,51.8,29.92,WNW,303,0.0,0.0,85,0.00,,---,0.00,0.00,VWS V14.01,2013-07-28 09:48:00,
2013-07-28 02:53:00,56.2,51.8,29.92,WNW,303,0.0,0.0,85,0.00,,---,0.00,0.00,VWS V14.01,2013-07-28 09:53:00,
2013-07-28 02:58:00,56.2,51.4,29.92,WNW,303,0.0,0.0,84,0.00,,---,0.00,0.00,VWS V14.01,2013-07-28 09:58:00,
2013-07-28 03:03:00,56.1,51.3,29.92,WNW,303,0.0,0.0,84,0.00,,---,0.00,0.00,VWS V14.01,2013-07-28 10:03:00,
2013-07-28 03:08:00,56.1,51.3,29.92,WNW,303,0.0,0.0,84,0.00,,---,0.00,0.00,VWS V14.01,2013-07-28 10:08:00,
2013-07-28 03:13:00,56.1,51.3,29.92,WNW,303,0.0,0.0,84,0.00,,---,0.00,0.00,VWS V14.01,2013-07-28 10:13:00,
2013-07-28 03:18:00,56.0,51.2,29.92,WNW,303,0.0,0.0,84,0.00,,---,0.00,0.00,VWS V14.01,2013-07-28 10:18:00,
2013-07-28 03:23:00,55.9,51.1,29.92,WNW,303,0.0,0.0,84,0.00,,---,0.00,0.00,VWS V14.01,2013-07-28 10:23:00,
2013-07-28 03:28:00,55.8,51.0,29.92,WNW,303,0.0,0.0,84,0.00,,---,0.00,0.00,VWS V14.01,2013-07-28 10:28:00,
2013-07-28 03:33:00,55.7,51.0,29.92,WNW,303,0.0,0.0,84,0.00,,---,0.00,0.00,VWS V14.01,2013-07-28 10:33:00,
2013-07-28 03:38:00,55.6,51.2,29.92,WNW,303,0.0,0.0,85,0.00,,---,0.00,0.00,VWS V14.01,2013-07-28 10:38:00,
2013-07-28 03:43:00,55.4,51.0,29.92,WNW,303,0.0,0.0,85,0.00,,---,0.00,0.00,VWS V14.01,2013-07-28 10:43:00,
2013-07-28 03:48:00,55.3,50.9,29.92,WNW,303,0.0,0.0,85,0.00,,---,0.00,0.00,VWS V14.01,2013-07-28 10:48:00,
2013-07-28 03:53:00,55.1,50.7,29.92,WNW,303,0.0,0.0,85,0.00,,---,0.00,0.00,VWS V14.01,2013-07-28 10:53:00,
2013-07-28 03:58:00,54.9,50.5,29.93,WNW,303,0.0,0.0,85,0.00,,---,0.00,0.00,VWS V14.01,2013-07-28 10:58:00,
2013-07-28 04:03:00,54.7,50.6,29.93,WNW,303,0.0,0.0,86,0.00,,---,0.00,0.00,VWS V14.01,2013-07-28 11:03:00,
2013-07-28 04:08:00,54.5,50.4,29.93,WNW,303,0.0,0.0,86,0.00,,---,0.00,0.00,VWS V14.01,2013-07-28 11:08:00,
2013-07-28 04:13:00,54.4,50.3,29.93,WNW,303,0.0,0.0,86,0.00,,---,0.00,0.00,VWS V14.01,2013-07-28 11:13:00,
2013-07-28 04:18:00,54.2,50.1,29.93,WNW,303,0.0,0.0,86,0.00,,---,0.00,0.00,VWS V14.01,2013-07-28 11:18:00,
2013-07-28 04:23:00,54.0,50.2,29.92,WNW,303,0.0,0.0,87,0.00,,---,0.00,0.00,VWS V14.01,2013-07-28 11:23:00,
2013-07-28 04:28:00,53.9,50.1,29.92,WNW,303,0.0,0.0,87,0.00,,---,0.00,0.00,VWS V14.01,2013-07-28 11:28:00,
2013-07-28 04:33:00,53.8,50.6,29.92,WNW,303,0.0,0.0,89,0.00,,---,0.00,0.00,VWS V14.01,2013-07-28 11:33:00,
2013-07-28 04:38:00,53.8,50.6,29.92,WNW,303,0.0,0.0,89,0.00,,---,0.00,0.00,VWS V14.01,2013-07-28 11:38:00,
2013-07-28 04:44:00,53.7,50.5,29.92,WNW,303,0.0,0.0,89,0.00,,---,0.00,0.00,VWS V14.01,2013-07-28 11:44:00,
2013-07-28 04:48:00,53.6,50.4,29.92,WNW,303,0.0,0.0,89,0.00,,---,0.00,0.00,VWS V14.01,2013-07-28 11:48:00,
2013-07-28 04:54:00,53.5,50.3,29.92,WNW,303,0.0,0.0,89,0.00,,---,0.00,0.00,VWS V14.01,2013-07-28 11:54:00,
2013-07-28 04:59:00,53.4,50.5,29.92,WNW,303,0.0,0.0,90,0.00,,---,0.00,0.00,VWS V14.01,2013-07-28 11:59:00,
2013-07-28 05:04:00,53.2,50.0,29.92,WNW,303,0.0,0.0,89,0.00,,---,0.00,0.00,VWS V14.01,2013-07-28 12:04:00,
2013-07-28 05:09:00,53.1,50.0,29.92,WNW,303,0.0,0.0,89,0.00,,---,0.00,0.00,VWS V14.01,2013-07-28 12:09:00,
2013-07-28 05:14:00,53.0,50.2,29.92,WNW,303,0.0,0.0,90,0.00,,---,0.00,0.00,VWS V14.01,2013-07-28 12:14:00,
2013-07-28 05:19:00,52.9,50.3,29.92,WNW,303,0.0,0.0,91,0.00,,---,0.00,0.00,VWS V14.01,2013-07-28 12:19:00,
2013-07-28 05:24:00,52.8,50.2,29.92,WNW,303,0.0,0.0,91,0.00,,---,0.00,0.00,VWS V14.01,2013-07-28 12:24:00,
2013-07-28 05:29:00,52.8,50.2,29.92,WNW,303,0.0,0.0,91,0.00,,---,0.00,0.00,VWS V14.01,2013-07-28 12:29:00,
2013-07-28 05:34:00,52.8,50.2,29.92,WNW,303,0.0,0.0,91,0.00,,---,0.00,0.00,VWS V14.01,2013-07-28 12:34:00,
2013-07-28 05:39:00,52.7,50.5,29.92,WNW,303,0.0,0.0,92,0.00,,---,0.00,0.00,VWS V14.01,2013-07-28 12:39:00,
2013-07-28 05:44:00,52.7,50.5,29.92,WNW,303,0.0,0.0,92,0.00,,---,0.00,0.00,VWS V14.01,2013-07-28 12:44:00,
2013-07-28 05:49:00,52.6,50.0,29.92,WNW,303,0.0,0.0,91,0.00,,---,0.00,0.00,VWS V14.01,2013-07-28 12:49:00,
2013-07-28 05:54:00,52.4,49.8,29.92,WNW,303,0.0,0.0,91,0.00,,---,0.00,0.00,VWS V14.01,2013-07-28 12:54:00,
2013-07-28 05:59:00,52.4,50.2,29.92,WNW,303,0.0,0.0,92,0.00,,---,0.00,5.00,VWS V14.01,2013-07-28 12:59:00,
2013-07-28 06:04:00,52.3,50.0,29.93,WNW,303,0.0,0.0,92,0.00,,---,0.00,7.00,VWS V14.01,2013-07-28 13:04:00,
2013-07-28 06:09:00,52.3,50.0,29.93,WNW,303,0.0,0.0,92,0.00,,---,0.00,9.00,VWS V14.01,2013-07-28 13:09:00,
2013-07-28 06:14:00,52.3,50.0,29.93,WNW,303,0.0,0.0,92,0.00,,---,0.00,9.00,VWS V14.01,2013-07-28 13:14:00,
2013-07-28 06:19:00,52.3,50.3,29.93,WNW,303,0.0,0.0,93,0.00,,---,0.00,11.00,VWS V14.01,2013-07-28 13:19:00,
2013-07-28 06:24:00,52.3,50.3,29.93,WNW,303,0.0,0.0,93,0.00,,---,0.00,12.00,VWS V14.01,2013-07-28 13:24:00,
2013-07-28 06:29:00,52.4,50.4,29.93,WNW,303,0.0,0.0,93,0.00,,---,0.00,12.00,VWS V14.01,2013-07-28 13:29:00,
2013-07-28 06:34:00,52.4,50.4,29.93,WNW,303,0.0,0.0,93,0.00,,---,0.00,16.00,VWS V14.01,2013-07-28 13:34:00,
2013-07-28 06:39:00,52.5,50.5,29.93,WNW,303,0.0,0.0,93,0.00,,---,0.00,18.00,VWS V14.01,2013-07-28 13:39:00,
2013-07-28 06:44:00,52.5,50.5,29.93,WNW,303,0.0,0.0,93,0.00,,---,0.00,19.00,VWS V14.01,2013-07-28 13:44:00,
2013-07-28 06:49:00,52.6,50.6,29.93,WNW,303,0.0,1.0,93,0.00,,---,0.00,21.00,VWS V14.01,2013-07-28 13:49:00,
2013-07-28 06:54:00,52.7,51.0,29.93,WNW,303,0.0,1.0,94,0.00,,---,0.00,25.00,VWS V14.01,2013-07-28 13:54:00,
2013-07-28 06:59:00,52.7,51.0,29.93,WNW,302,0.0,1.0,94,0.00,,---,0.00,26.00,VWS V14.01,2013-07-28 13:59:00,
2013-07-28 07:04:00,52.9,51.2,29.94,WNW,302,0.0,1.0,94,0.00,,---,0.00,33.00,VWS V14.01,2013-07-28 14:04:00,
2013-07-28 07:09:00,53.0,51.3,29.94,WNW,294,0.0,4.0,94,0.00,,---,0.00,51.00,VWS V14.01,2013-07-28 14:09:00,
2013-07-28 07:14:00,53.3,51.6,29.94,WNW,294,2.0,3.0,94,0.00,,---,0.00,93.00,VWS V14.01,2013-07-28 14:14:00,
2013-07-28 07:19:00,53.7,52.0,29.94,WSW,257,1.0,5.0,94,0.00,,---,0.00,88.00,VWS V14.01,2013-07-28 14:19:00,
2013-07-28 07:24:00,54.2,52.2,29.94,West,266,0.0,5.0,93,0.00,,---,0.00,74.00,VWS V14.01,2013-07-28 14:24:00,
2013-07-28 07:29:00,54.6,52.3,29.94,West,266,0.0,4.0,92,0.00,,---,0.00,91.00,VWS V14.01,2013-07-28 14:29:00,
2013-07-28 07:34:00,55.0,52.4,29.94,WNW,303,0.0,4.0,91,0.00,,---,0.00,88.00,VWS V14.01,2013-07-28 14:34:00,
2013-07-28 07:39:00,55.3,52.4,29.94,West,279,2.0,5.0,90,0.00,,---,0.00,91.00,VWS V14.01,2013-07-28 14:39:00,
2013-07-28 07:44:00,55.6,52.4,29.94,WNW,295,0.0,5.0,89,0.00,,---,0.00,70.00,VWS V14.01,2013-07-28 14:44:00,
2013-07-28 07:49:00,56.0,52.8,29.94,West,268,3.0,6.0,89,0.00,,---,0.00,128.00,VWS V14.01,2013-07-28 14:49:00,
2013-07-28 07:54:00,56.3,52.5,29.94,West,259,4.0,6.0,87,0.00,,---,0.00,162.00,VWS V14.01,2013-07-28 14:54:00,
2013-07-28 07:59:00,56.8,52.7,29.94,WNW,284,0.0,6.0,86,0.00,,---,0.00,209.00,VWS V14.01,2013-07-28 14:59:00,
2013-07-28 08:04:00,57.3,52.8,29.94,WNW,290,4.0,8.0,85,0.00,,---,0.00,404.00,VWS V14.01,2013-07-28 15:04:00,
2013-07-28 08:09:00,57.9,53.1,29.94,NW,306,0.0,8.0,84,0.00,,---,0.00,408.00,VWS V14.01,2013-07-28 15:09:00,
2013-07-28 08:14:00,58.9,53.8,29.94,NW,305,1.0,5.0,83,0.00,,---,0.00,418.00,VWS V14.01,2013-07-28 15:14:00,
2013-07-28 08:19:00,59.5,53.3,29.94,NW,309,0.0,7.0,80,0.00,,---,0.00,237.00,VWS V14.01,2013-07-28 15:19:00,
2013-07-28 08:24:00,59.8,53.3,29.95,NNW,336,0.0,6.0,79,0.00,,---,0.00,540.00,VWS V14.01,2013-07-28 15:24:00,
2013-07-28 08:29:00,60.1,53.2,29.94,WSW,244,2.0,7.0,78,0.00,,---,0.00,169.00,VWS V14.01,2013-07-28 15:29:00,
2013-07-28 08:34:00,60.0,52.8,29.94,WNW,298,7.0,7.0,77,0.00,,---,0.00,193.00,VWS V14.01,2013-07-28 15:34:00,
2013-07-28 08:39:00,60.1,52.9,29.94,WNW,300,6.0,8.0,77,0.00,,---,0.00,318.00,VWS V14.01,2013-07-28 15:39:00,
2013-07-28 08:44:00,60.3,53.1,29.94,SW,235,3.0,9.0,77,0.00,,---,0.00,429.00,VWS V14.01,2013-07-28 15:44:00,
2013-07-28 08:49:00,60.8,53.9,29.95,WNW,294,1.0,7.0,78,0.00,,---,0.00,538.00,VWS V14.01,2013-07-28 15:49:00,
2013-07-28 08:54:00,61.6,54.0,29.95,West,278,1.0,7.0,76,0.00,,---,0.00,559.00,VWS V14.01,2013-07-28 15:54:00,
2013-07-28 08:59:00,61.8,53.8,29.95,WNW,290,3.0,7.0,75,0.00,,---,0.00,701.00,VWS V14.01,2013-07-28 15:59:00,
2013-07-28 09:04:00,61.9,53.2,29.95,West,279,1.0,9.0,73,0.00,,---,0.00,290.00,VWS V14.01,2013-07-28 16:04:00,
2013-07-28 09:09:00,61.7,53.7,29.95,West,269,3.0,9.0,75,0.00,,---,0.00,424.00,VWS V14.01,2013-07-28 16:09:00,
2013-07-28 09:14:00,61.8,52.7,29.95,WNW,291,4.0,10.0,72,0.00,,---,0.00,283.00,VWS V14.01,2013-07-28 16:14:00,
2013-07-28 09:19:00,62.1,53.3,29.95,West,260,3.0,10.0,73,0.00,,---,0.00,255.00,VWS V14.01,2013-07-28 16:19:00,
2013-07-28 09:24:00,62.6,53.8,29.95,WNW,287,6.0,6.0,73,0.00,,---,0.00,255.00,VWS V14.01,2013-07-28 16:24:00,
2013-07-28 09:29:00,63.1,53.9,29.95,NW,310,0.0,8.0,72,0.00,,---,0.00,350.00,VWS V14.01,2013-07-28 16:29:00,
2013-07-28 09:34:00,63.2,53.7,29.95,SW,223,3.0,7.0,71,0.00,,---,0.00,285.00,VWS V14.01,2013-07-28 16:34:00,
2013-07-28 09:39:00,62.9,53.8,29.94,NNW,331,6.0,7.0,72,0.00,,---,0.00,392.00,VWS V14.01,2013-07-28 16:39:00,
2013-07-28 09:44:00,62.7,53.2,29.94,West,279,1.0,7.0,71,0.00,,---,0.00,274.00,VWS V14.01,2013-07-28 16:44:00,
2013-07-28 09:50:00,62.4,52.9,29.95,West,275,3.0,7.0,71,0.00,,---,0.00,287.00,VWS V14.01,2013-07-28 16:50:00,
2013-07-28 09:55:00,62.5,53.4,29.95,NW,308,7.0,13.0,72,0.00,,---,0.00,531.00,VWS V14.01,2013-07-28 16:55:00,
2013-07-28 10:00:00,62.7,53.9,29.95,West,267,3.0,12.0,73,0.00,,---,0.00,445.00,VWS V14.01,2013-07-28 17:00:00,
2013-07-28 10:05:00,63.6,53.3,29.95,West,273,3.0,12.0,69,0.00,,---,0.00,765.00,VWS V14.01,2013-07-28 17:05:00,
2013-07-28 10:10:00,64.1,54.1,29.95,NW,305,5.0,11.0,70,0.00,,---,0.00,253.00,VWS V14.01,2013-07-28 17:10:00,
2013-07-28 10:15:00,64.2,53.8,29.95,South,184,0.0,11.0,69,0.00,,---,0.00,357.00,VWS V14.01,2013-07-28 17:15:00,
2013-07-28 10:20:00,64.3,53.9,29.94,West,265,0.0,8.0,69,0.00,,---,0.00,439.00,VWS V14.01,2013-07-28 17:20:00,
2013-07-28 10:25:00,64.4,54.4,29.94,South,184,0.0,8.0,70,0.00,,---,0.00,515.00,VWS V14.01,2013-07-28 17:25:00,
2013-07-28 10:30:00,65.0,54.6,29.94,WSW,252,2.0,8.0,69,0.00,,---,0.00,563.00,VWS V14.01,2013-07-28 17:30:00,
2013-07-28 10:35:00,65.5,54.3,29.95,WNW,293,1.0,6.0,67,0.00,,---,0.00,564.00,VWS V14.01,2013-07-28 17:35:00,
2013-07-28 10:40:00,66.1,54.4,29.95,SSW,200,2.0,7.0,66,0.00,,---,0.00,564.00,VWS V14.01,2013-07-28 17:40:00,
2013-07-28 10:45:00,66.5,54.8,29.95,South,185,0.0,7.0,66,0.00,,---,0.00,564.00,VWS V14.01,2013-07-28 17:45:00,
2013-07-28 10:50:00,66.2,54.5,29.95,WNW,296,1.0,7.0,66,0.00,,---,0.00,564.00,VWS V14.01,2013-07-28 17:50:00,
2013-07-28 10:55:00,66.8,54.2,29.95,West,277,2.0,6.0,64,0.00,,---,0.00,923.00,VWS V14.01,2013-07-28 17:55:00,
2013-07-28 11:00:00,67.3,54.3,29.95,WSW,248,1.0,9.0,63,0.00,,---,0.00,756.00,VWS V14.01,2013-07-28 18:00:00,
2013-07-28 11:05:00,67.5,54.0,29.94,WSW,254,1.0,7.0,62,0.00,,---,0.00,918.00,VWS V14.01,2013-07-28 18:05:00,
2013-07-28 11:10:00,68.1,55.5,29.94,WNW,295,4.0,10.0,64,0.00,,---,0.00,905.00,VWS V14.01,2013-07-28 18:10:00,
2013-07-28 11:15:00,68.6,55.1,29.94,SW,229,2.0,10.0,62,0.00,,---,0.00,902.00,VWS V14.01,2013-07-28 18:15:00,
2013-07-28 11:20:00,69.6,55.1,29.94,NW,304,7.0,9.0,60,0.00,,---,0.00,909.00,VWS V14.01,2013-07-28 18:20:00,
2013-07-28 11:25:00,70.6,55.6,29.94,WSW,250,4.0,9.0,59,0.00,,---,0.00,900.00,VWS V14.01,2013-07-28 18:25:00,
2013-07-28 11:30:00,71.5,55.5,29.94,NW,306,8.0,8.0,57,0.00,,---,0.00,882.00,VWS V14.01,2013-07-28 18:30:00,
2013-07-28 11:35:00,72.1,55.6,29.94,SSW,197,2.0,9.0,56,0.00,,---,0.00,893.00,VWS V14.01,2013-07-28 18:35:00,
2013-07-28 11:40:00,72.5,55.9,29.94,WSW,255,3.0,9.0,56,0.00,,---,0.00,947.00,VWS V14.01,2013-07-28 18:40:00,
2013-07-28 11:45:00,72.3,55.7,29.94,West,261,7.0,9.0,56,0.00,,---,0.00,921.00,VWS V14.01,2013-07-28 18:45:00,
2013-07-28 11:50:00,72.1,55.1,29.94,SW,219,5.0,9.0,55,0.00,,---,0.00,918.00,VWS V14.01,2013-07-28 18:50:00,
2013-07-28 11:55:00,72.4,55.3,29.94,NW,309,2.0,9.0,55,0.00,,---,0.00,904.00,VWS V14.01,2013-07-28 18:55:00,
2013-07-28 12:00:00,72.5,54.9,29.94,NW,311,4.0,7.0,54,0.00,,---,0.00,919.00,VWS V14.01,2013-07-28 19:00:00,
2013-07-28 12:05:00,72.3,55.2,29.94,West,266,3.0,7.0,55,0.00,,---,0.00,919.00,VWS V14.01,2013-07-28 19:05:00,
2013-07-28 12:10:00,72.5,55.9,29.94,WNW,284,4.0,7.0,56,0.00,,---,0.00,921.00,VWS V14.01,2013-07-28 19:10:00,
2013-07-28 12:15:00,73.4,56.3,29.94,West,260,2.0,7.0,55,0.00,,---,0.00,933.00,VWS V14.01,2013-07-28 19:15:00,
2013-07-28 12:20:00,74.0,55.3,29.94,WNW,296,9.0,9.0,52,0.00,,---,0.00,933.00,VWS V14.01,2013-07-28 19:20:00,
2013-07-28 12:25:00,74.6,55.8,29.94,NW,321,8.0,9.0,52,0.00,,---,0.00,953.00,VWS V14.01,2013-07-28 19:25:00,
2013-07-28 12:30:00,74.8,56.0,29.94,SSW,196,5.0,8.0,52,0.00,,---,0.00,935.00,VWS V14.01,2013-07-28 19:30:00,
2013-07-28 12:35:00,74.0,55.3,29.94,West,281,3.0,7.0,52,0.00,,---,0.00,940.00,VWS V14.01,2013-07-28 19:35:00,
2013-07-28 12:40:00,74.4,56.2,29.94,West,271,6.0,8.0,53,0.00,,---,0.00,935.00,VWS V14.01,2013-07-28 19:40:00,
2013-07-28 12:45:00,75.0,55.7,29.94,SW,236,5.0,9.0,51,0.00,,---,0.00,944.00,VWS V14.01,2013-07-28 19:45:00,
2013-07-28 12:50:00,75.4,55.5,29.94,West,267,0.0,11.0,50,0.00,,---,0.00,947.00,VWS V14.01,2013-07-28 19:50:00,
2013-07-28 12:55:00,75.5,55.6,29.94,WSW,255,3.0,10.0,50,0.00,,---,0.00,949.00,VWS V14.01,2013-07-28 19:55:00,
2013-07-28 13:00:00,75.3,54.3,29.93,WSW,248,2.0,9.0,48,0.00,,---,0.00,944.00,VWS V14.01,2013-07-28 20:00:00,
2013-07-28 13:05:00,73.8,54.6,29.93,SSE,156,1.0,7.0,51,0.00,,---,0.00,949.00,VWS V14.01,2013-07-28 20:05:00,
2013-07-28 13:10:00,72.6,56.0,29.93,NW,323,4.0,7.0,56,0.00,,---,0.00,947.00,VWS V14.01,2013-07-28 20:10:00,
2013-07-28 13:15:00,73.0,55.9,29.93,NW,324,2.0,8.0,55,0.00,,---,0.00,946.00,VWS V14.01,2013-07-28 20:15:00,
2013-07-28 13:20:00,73.9,55.2,29.93,SSW,209,1.0,9.0,52,0.00,,---,0.00,946.00,VWS V14.01,2013-07-28 20:20:00,
2013-07-28 13:25:00,74.7,55.9,29.93,WNW,290,1.0,6.0,52,0.00,,---,0.00,946.00,VWS V14.01,2013-07-28 20:25:00,
2013-07-28 13:30:00,74.9,54.5,29.93,NW,323,0.0,6.0,49,0.00,,---,0.00,944.00,VWS V14.01,2013-07-28 20:30:00,
2013-07-28 13:35:00,74.2,55.5,29.93,West,276,3.0,9.0,52,0.00,,---,0.00,946.00,VWS V14.01,2013-07-28 20:35:00,
2013-07-28 13:40:00,74.8,55.5,29.93,West,265,2.0,9.0,51,0.00,,---,0.00,939.00,VWS V14.01,2013-07-28 20:40:00,
2013-07-28 13:45:00,74.7,55.9,29.93,SW,224,0.0,5.0,52,0.00,,---,0.00,932.00,VWS V14.01,2013-07-28 20:45:00,
2013-07-28 13:50:00,74.4,55.7,29.93,SE,144,7.0,7.0,52,0.00,,---,0.00,930.00,VWS V14.01,2013-07-28 20:50:00,
2013-07-28 13:55:00,73.3,55.7,29.93,WSW,246,1.0,7.0,54,0.00,,---,0.00,925.00,VWS V14.01,2013-07-28 20:55:00,
2013-07-28 14:00:00,74.3,56.1,29.93,West,271,1.0,11.0,53,0.00,,---,0.00,918.00,VWS V14.01,2013-07-28 21:00:00,
2013-07-28 14:05:00,75.6,56.2,29.93,NW,309,6.0,7.0,51,0.00,,---,0.00,911.00,VWS V14.01,2013-07-28 21:05:00,
2013-07-28 14:10:00,76.5,55.9,29.93,NW,304,4.0,7.0,49,0.00,,---,0.00,912.00,VWS V14.01,2013-07-28 21:10:00,
2013-07-28 14:16:00,77.2,56.0,29.93,NW,313,7.0,9.0,48,0.00,,---,0.00,905.00,VWS V14.01,2013-07-28 21:16:00,
2013-07-28 14:21:00,77.7,57.0,29.92,NW,322,7.0,10.0,49,0.00,,---,0.00,895.00,VWS V14.01,2013-07-28 21:21:00,
2013-07-28 14:25:00,77.6,57.0,29.92,SW,219,1.0,12.0,49,0.00,,---,0.00,900.00,VWS V14.01,2013-07-28 21:25:00,
2013-07-28 14:31:00,77.7,55.9,29.92,WNW,284,5.0,14.0,47,0.00,,---,0.00,888.00,VWS V14.01,2013-07-28 21:31:00,
2013-07-28 14:36:00,77.8,56.6,29.92,NW,304,5.0,11.0,48,0.00,,---,0.00,881.00,VWS V14.01,2013-07-28 21:36:00,
2013-07-28 14:41:00,78.0,56.7,29.92,NNW,327,5.0,10.0,48,0.00,,---,0.00,879.00,VWS V14.01,2013-07-28 21:41:00,
2013-07-28 14:46:00,78.1,56.8,29.92,West,280,1.0,11.0,48,0.00,,---,0.00,865.00,VWS V14.01,2013-07-28 21:46:00,
2013-07-28 14:51:00,78.1,56.8,29.92,West,265,1.0,11.0,48,0.00,,---,0.00,860.00,VWS V14.01,2013-07-28 21:51:00,
2013-07-28 14:56:00,78.5,57.2,29.92,WSW,245,3.0,11.0,48,0.00,,---,0.00,854.00,VWS V14.01,2013-07-28 21:56:00,
2013-07-28 15:01:00,78.4,56.5,29.92,SSW,196,4.0,11.0,47,0.00,,---,0.00,846.00,VWS V14.01,2013-07-28 22:01:00,
2013-07-28 15:06:00,77.8,57.1,29.92,SSW,203,1.0,11.0,49,0.00,,---,0.00,833.00,VWS V14.01,2013-07-28 22:06:00,
2013-07-28 15:11:00,78.0,57.3,29.92,WNW,292,4.0,9.0,49,0.00,,---,0.00,824.00,VWS V14.01,2013-07-28 22:11:00,
2013-07-28 15:16:00,77.5,56.9,29.92,NW,306,3.0,10.0,49,0.00,,---,0.00,814.00,VWS V14.01,2013-07-28 22:16:00,
2013-07-28 15:21:00,77.3,56.7,29.92,WSW,257,3.0,10.0,49,0.00,,---,0.00,807.00,VWS V14.01,2013-07-28 22:21:00,
2013-07-28 15:26:00,77.3,56.1,29.92,WNW,290,5.0,12.0,48,0.00,,---,0.00,789.00,VWS V14.01,2013-07-28 22:26:00,
2013-07-28 15:31:00,77.3,56.7,29.92,SE,134,4.0,12.0,49,0.00,,---,0.00,777.00,VWS V14.01,2013-07-28 22:31:00,
2013-07-28 15:36:00,77.2,56.0,29.92,WNW,286,2.0,14.0,48,0.00,,---,0.00,765.00,VWS V14.01,2013-07-28 22:36:00,
2013-07-28 15:41:00,76.7,56.1,29.92,WNW,295,2.0,14.0,49,0.00,,---,0.00,759.00,VWS V14.01,2013-07-28 22:41:00,
2013-07-28 15:46:00,76.7,56.7,29.92,SE,132,4.0,7.0,50,0.00,,---,0.00,740.00,VWS V14.01,2013-07-28 22:46:00,
2013-07-28 15:51:00,76.9,56.3,29.92,WSW,254,6.0,12.0,49,0.00,,---,0.00,738.00,VWS V14.01,2013-07-28 22:51:00,
2013-07-28 15:56:00,76.1,55.6,29.92,WSW,251,2.0,12.0,49,0.00,,---,0.00,722.00,VWS V14.01,2013-07-28 22:56:00,
2013-07-28 16:01:00,75.2,55.3,29.92,WSW,245,4.0,10.0,50,0.00,,---,0.00,710.00,VWS V14.01,2013-07-28 23:01:00,
2013-07-28 16:06:00,74.2,55.5,29.92,WSW,256,3.0,9.0,52,0.00,,---,0.00,700.00,VWS V14.01,2013-07-28 23:06:00,
2013-07-28 16:11:00,73.6,55.4,29.92,SSW,203,3.0,9.0,53,0.00,,---,0.00,684.00,VWS V14.01,2013-07-28 23:11:00,
2013-07-28 16:16:00,73.2,55.6,29.91,WNW,296,4.0,10.0,54,0.00,,---,0.00,673.00,VWS V14.01,2013-07-28 23:16:00,
2013-07-28 16:21:00,73.3,55.7,29.91,SSE,164,4.0,9.0,54,0.00,,---,0.00,659.00,VWS V14.01,2013-07-28 23:21:00,
2013-07-28 16:26:00,73.9,55.7,29.92,WNW,288,6.0,10.0,53,0.00,,---,0.00,647.00,VWS V14.01,2013-07-28 23:26:00,
2013-07-28 16:31:00,74.0,55.3,29.91,SSW,196,1.0,9.0,52,0.00,,---,0.00,635.00,VWS V14.01,2013-07-28 23:31:00,
2013-07-28 16:36:00,73.9,56.2,29.91,WSW,254,5.0,10.0,54,0.00,,---,0.00,615.00,VWS V14.01,2013-07-28 23:36:00,
2013-07-28 16:42:00,74.4,56.2,29.91,WNW,295,3.0,11.0,53,0.00,,---,0.00,605.00,VWS V14.01,2013-07-28 23:42:00,
2013-07-28 16:47:00,74.7,56.5,29.91,SSW,200,2.0,10.0,53,0.00,,---,0.00,585.00,VWS V14.01,2013-07-28 23:47:00,
2013-07-28 16:52:00,74.8,56.0,29.91,West,264,4.0,10.0,52,0.00,,---,0.00,577.00,VWS V14.01,2013-07-28 23:52:00,
2013-07-28 16:57:00,74.8,56.0,29.91,NW,304,3.0,10.0,52,0.00,,---,0.00,561.00,VWS V14.01,2013-07-28 23:57:00,
2013-07-28 17:02:00,74.6,55.8,29.91,SSW,213,3.0,8.0,52,0.00,,---,0.00,548.00,VWS V14.01,2013-07-29 00:02:00,
2013-07-28 17:07:00,74.1,55.4,29.91,West,280,4.0,11.0,52,0.00,,---,0.00,534.00,VWS V14.01,2013-07-29 00:07:00,
2013-07-28 17:12:00,73.9,55.7,29.90,West,270,2.0,11.0,53,0.00,,---,0.00,520.00,VWS V14.01,2013-07-29 00:12:00,
2013-07-28 17:17:00,73.9,55.7,29.90,North,360,0.0,10.0,53,0.00,,---,0.00,504.00,VWS V14.01,2013-07-29 00:17:00,
2013-07-28 17:22:00,73.7,55.5,29.90,NW,307,1.0,8.0,53,0.00,,---,0.00,492.00,VWS V14.01,2013-07-29 00:22:00,
2013-07-28 17:27:00,73.5,55.9,29.90,South,181,2.0,11.0,54,0.00,,---,0.00,476.00,VWS V14.01,2013-07-29 00:27:00,
2013-07-28 17:32:00,73.1,55.5,29.90,SSW,209,2.0,11.0,54,0.00,,---,0.00,462.00,VWS V14.01,2013-07-29 00:32:00,
2013-07-28 17:37:00,72.8,55.7,29.90,WSW,247,3.0,8.0,55,0.00,,---,0.00,446.00,VWS V14.01,2013-07-29 00:37:00,
2013-07-28 17:42:00,72.8,55.7,29.90,NW,315,1.0,9.0,55,0.00,,---,0.00,432.00,VWS V14.01,2013-07-29 00:42:00,
2013-07-28 17:47:00,72.5,54.9,29.89,WNW,285,1.0,7.0,54,0.00,,---,0.00,420.00,VWS V14.01,2013-07-29 00:47:00,
2013-07-28 17:52:00,72.0,55.5,29.89,West,268,2.0,6.0,56,0.00,,---,0.00,51.00,VWS V14.01,2013-07-29 00:52:00,
2013-07-28 17:57:00,71.5,55.0,29.89,NW,311,5.0,6.0,56,0.00,,---,0.00,40.00,VWS V14.01,2013-07-29 00:57:00,
2013-07-28 18:02:00,70.9,54.9,29.89,South,186,0.0,7.0,57,0.00,,---,0.00,39.00,VWS V14.01,2013-07-29 01:02:00,
2013-07-28 18:07:00,70.5,55.0,29.89,WSW,257,3.0,7.0,58,0.00,,---,0.00,39.00,VWS V14.01,2013-07-29 01:07:00,
2013-07-28 18:12:00,69.9,54.9,29.89,South,181,1.0,6.0,59,0.00,,---,0.00,37.00,VWS V14.01,2013-07-29 01:12:00,
2013-07-28 18:17:00,69.5,55.0,29.89,West,278,4.0,8.0,60,0.00,,---,0.00,37.00,VWS V14.01,2013-07-29 01:17:00,
2013-07-28 18:22:00,69.4,55.4,29.89,NW,311,4.0,8.0,61,0.00,,---,0.00,37.00,VWS V14.01,2013-07-29 01:22:00,
2013-07-28 18:28:00,69.4,54.9,29.89,WNW,301,4.0,7.0,60,0.00,,---,0.00,35.00,VWS V14.01,2013-07-29 01:28:00,
2013-07-28 18:33:00,69.4,54.9,29.89,West,262,3.0,10.0,60,0.00,,---,0.00,35.00,VWS V14.01,2013-07-29 01:33:00,
2013-07-28 18:38:00,69.3,54.8,29.89,WSW,240,1.0,9.0,60,0.00,,---,0.00,35.00,VWS V14.01,2013-07-29 01:38:00,
2013-07-28 18:43:00,69.1,54.7,29.89,South,188,1.0,9.0,60,0.00,,---,0.00,35.00,VWS V14.01,2013-07-29 01:43:00,
2013-07-28 18:48:00,68.8,54.8,29.89,NW,319,3.0,6.0,61,0.00,,---,0.00,33.00,VWS V14.01,2013-07-29 01:48:00,
2013-07-28 18:53:00,68.6,55.1,29.89,SE,142,4.0,5.0,62,0.00,,---,0.00,33.00,VWS V14.01,2013-07-29 01:53:00,
2013-07-28 18:58:00,68.2,54.7,29.88,SSW,198,2.0,9.0,62,0.00,,---,0.00,33.00,VWS V14.01,2013-07-29 01:58:00,
2013-07-28 19:03:00,68.1,54.6,29.88,SE,143,1.0,8.0,62,0.00,,---,0.00,32.00,VWS V14.01,2013-07-29 02:03:00,
2013-07-28 19:08:00,68.0,54.5,29.88,West,271,1.0,8.0,62,0.00,,---,0.00,32.00,VWS V14.01,2013-07-29 02:08:00,
2013-07-28 19:13:00,67.9,54.4,29.89,WNW,290,3.0,5.0,62,0.00,,---,0.00,30.00,VWS V14.01,2013-07-29 02:13:00,
2013-07-28 19:18:00,67.9,54.8,29.88,SW,232,2.0,6.0,63,0.00,,---,0.00,28.00,VWS V14.01,2013-07-29 02:18:00,
2013-07-28 19:24:00,67.7,54.7,29.88,WNW,299,7.0,7.0,63,0.00,,---,0.00,26.00,VWS V14.01,2013-07-29 02:24:00,
2013-07-28 19:29:00,67.4,54.4,29.88,SSW,192,2.0,7.0,63,0.00,,---,0.00,23.00,VWS V14.01,2013-07-29 02:29:00,
2013-07-28 19:34:00,67.1,54.5,29.88,WNW,303,0.0,7.0,64,0.00,,---,0.00,19.00,VWS V14.01,2013-07-29 02:34:00,
2013-07-28 19:39:00,66.9,54.3,29.88,WNW,287,3.0,6.0,64,0.00,,---,0.00,16.00,VWS V14.01,2013-07-29 02:39:00,
2013-07-28 19:45:00,66.7,54.6,29.88,WNW,288,0.0,6.0,65,0.00,,---,0.00,16.00,VWS V14.01,2013-07-29 02:45:00,
2013-07-28 19:49:00,66.5,54.4,29.88,SSW,209,0.0,5.0,65,0.00,,---,0.00,16.00,VWS V14.01,2013-07-29 02:49:00,
2013-07-28 19:55:00,66.3,54.6,29.89,WSW,246,2.0,5.0,66,0.00,,---,0.00,14.00,VWS V14.01,2013-07-29 02:55:00,
2013-07-28 20:00:00,66.1,54.4,29.89,WNW,288,2.0,6.0,66,0.00,,---,0.00,14.00,VWS V14.01,2013-07-29 03:00:00,
2013-07-28 20:05:00,65.9,54.7,29.89,WSW,253,3.0,6.0,67,0.00,,---,0.00,12.00,VWS V14.01,2013-07-29 03:05:00,
2013-07-28 20:11:00,65.6,54.4,29.89,WSW,254,4.0,6.0,67,0.00,,---,0.00,11.00,VWS V14.01,2013-07-29 03:11:00,
2013-07-28 20:16:00,65.3,54.1,29.89,SSW,195,0.0,7.0,67,0.00,,---,0.00,9.00,VWS V14.01,2013-07-29 03:16:00,
2013-07-28 20:21:00,65.1,54.3,29.89,SSW,198,0.0,5.0,68,0.00,,---,0.00,7.00,VWS V14.01,2013-07-29 03:21:00,
2013-07-28 20:26:00,64.8,54.0,29.89,WNW,293,2.0,3.0,68,0.00,,---,0.00,7.00,VWS V14.01,2013-07-29 03:26:00,
2013-07-28 20:31:00,64.5,54.1,29.89,WSW,258,4.0,4.0,69,0.00,,---,0.00,5.00,VWS V14.01,2013-07-29 03:31:00,
2013-07-28 20:36:00,64.3,53.9,29.89,West,261,2.0,7.0,69,0.00,,---,0.00,0.00,VWS V14.01,2013-07-29 03:36:00,
2013-07-28 20:42:00,64.0,54.0,29.89,WNW,297,0.0,5.0,70,0.00,,---,0.00,0.00,VWS V14.01,2013-07-29 03:42:00,
2013-07-28 20:47:00,63.8,53.8,29.89,WNW,294,0.0,4.0,70,0.00,,---,0.00,0.00,VWS V14.01,2013-07-29 03:47:00,
2013-07-28 20:52:00,63.5,53.9,29.89,West,267,0.0,4.0,71,0.00,,---,0.00,0.00,VWS V14.01,2013-07-29 03:52:00,
2013-07-28 20:57:00,63.3,53.8,29.89,WSW,251,0.0,4.0,71,0.00,,---,0.00,0.00,VWS V14.01,2013-07-29 03:57:00,
2013-07-28 21:01:00,63.1,53.9,29.89,SSW,208,0.0,5.0,72,0.00,,---,0.00,0.00,VWS V14.01,2013-07-29 04:01:00,
2013-07-28 21:02:00,63.1,53.9,29.89,NW,311,0.0,5.0,72,0.00,,---,0.00,0.00,VWS V14.01,2013-07-29 04:02:00,
2013-07-28 21:07:00,62.8,53.7,29.90,WNW,300,0.0,4.0,72,0.00,,---,0.00,0.00,VWS V14.01,2013-07-29 04:07:00,
2013-07-28 21:12:00,62.6,53.5,29.90,WNW,300,0.0,4.0,72,0.00,,---,0.00,0.00,VWS V14.01,2013-07-29 04:12:00,
2013-07-28 21:17:00,62.4,53.6,29.90,WSW,247,0.0,4.0,73,0.00,,---,0.00,0.00,VWS V14.01,2013-07-29 04:17:00,
2013-07-28 21:22:00,62.2,53.5,29.90,South,179,0.0,4.0,73,0.00,,---,0.00,0.00,VWS V14.01,2013-07-29 04:22:00,
2013-07-28 21:27:00,62.0,53.6,29.90,NW,309,0.0,4.0,74,0.00,,---,0.00,0.00,VWS V14.01,2013-07-29 04:27:00,
2013-07-28 21:32:00,61.8,53.1,29.90,NW,309,0.0,2.0,73,0.00,,---,0.00,0.00,VWS V14.01,2013-07-29 04:32:00,
2013-07-28 21:37:00,61.6,53.2,29.90,SSE,165,0.0,6.0,74,0.00,,---,0.00,0.00,VWS V14.01,2013-07-29 04:37:00,
2013-07-28 21:42:00,61.4,53.0,29.90,SSE,159,0.0,4.0,74,0.00,,---,0.00,0.00,VWS V14.01,2013-07-29 04:42:00,
2013-07-28 21:47:00,61.3,53.3,29.90,SW,232,0.0,8.0,75,0.00,,---,0.00,0.00,VWS V14.01,2013-07-29 04:47:00,
2013-07-28 21:52:00,61.1,53.8,29.91,North,355,0.0,8.0,77,0.00,,---,0.00,0.00,VWS V14.01,2013-07-29 04:52:00,
2013-07-28 21:57:00,61.0,53.8,29.91,West,275,0.0,4.0,77,0.00,,---,0.00,0.00,VWS V14.01,2013-07-29 04:57:00,
2013-07-28 22:02:00,60.8,53.5,29.91,West,276,0.0,5.0,77,0.00,,---,0.00,0.00,VWS V14.01,2013-07-29 05:02:00,
2013-07-28 22:07:00,60.5,53.3,29.91,SE,133,0.0,5.0,77,0.00,,---,0.00,0.00,VWS V14.01,2013-07-29 05:07:00,
2013-07-28 22:12:00,60.4,53.2,29.91,NW,321,0.0,2.0,77,0.00,,---,0.00,0.00,VWS V14.01,2013-07-29 05:12:00,
2013-07-28 22:17:00,60.1,53.2,29.91,SW,217,0.0,3.0,78,0.00,,---,0.00,0.00,VWS V14.01,2013-07-29 05:17:00,
2013-07-28 22:22:00,59.9,53.0,29.91,NW,311,0.0,3.0,78,0.00,,---,0.00,0.00,VWS V14.01,2013-07-29 05:22:00,
2013-07-28 22:27:00,59.7,53.2,29.91,WSW,254,0.0,2.0,79,0.00,,---,0.00,0.00,VWS V14.01,2013-07-29 05:27:00,
2013-07-28 22:32:00,59.5,53.0,29.91,WSW,254,0.0,0.0,79,0.00,,---,0.00,0.00,VWS V14.01,2013-07-29 05:32:00,
2013-07-28 22:37:00,59.3,53.1,29.91,WSW,254,0.0,1.0,80,0.00,,---,0.00,0.00,VWS V14.01,2013-07-29 05:37:00,
2013-07-28 22:42:00,59.0,52.8,29.91,WSW,240,0.0,0.0,80,0.00,,---,0.00,0.00,VWS V14.01,2013-07-29 05:42:00,
2013-07-28 22:47:00,59.0,52.8,29.92,WSW,240,0.0,0.0,80,0.00,,---,0.00,0.00,VWS V14.01,2013-07-29 05:47:00,
2013-07-28 22:52:00,58.9,53.1,29.91,WSW,240,0.0,0.0,81,0.00,,---,0.00,0.00,VWS V14.01,2013-07-29 05:52:00,
2013-07-28 22:58:00,58.6,52.8,29.91,WSW,240,0.0,0.0,81,0.00,,---,0.00,0.00,VWS V14.01,2013-07-29 05:58:00,
2013-07-28 23:03:00,58.4,52.6,29.91,WSW,240,0.0,0.0,81,0.00,,---,0.00,0.00,VWS V14.01,2013-07-29 06:03:00,
2013-07-28 23:08:00,58.2,52.4,29.92,WSW,240,0.0,0.0,81,0.00,,---,0.00,0.00,VWS V14.01,2013-07-29 06:08:00,
2013-07-28 23:13:00,58.0,52.2,29.91,WSW,240,0.0,0.0,81,0.00,,---,0.00,0.00,VWS V14.01,2013-07-29 06:13:00,
2013-07-28 23:18:00,57.7,52.2,29.92,WSW,240,0.0,0.0,82,0.00,,---,0.00,0.00,VWS V14.01,2013-07-29 06:18:00,
2013-07-28 23:23:00,57.5,52.1,29.92,WSW,247,0.0,2.0,82,0.00,,---,0.00,0.00,VWS V14.01,2013-07-29 06:23:00,
2013-07-28 23:28:00,57.3,51.9,29.92,WSW,241,0.0,1.0,82,0.00,,---,0.00,0.00,VWS V14.01,2013-07-29 06:28:00,
2013-07-28 23:33:00,57.1,51.7,29.92,WSW,241,0.0,2.0,82,0.00,,---,0.00,0.00,VWS V14.01,2013-07-29 06:33:00,
2013-07-28 23:38:00,56.9,51.8,29.91,WSW,241,0.0,2.0,83,0.00,,---,0.00,0.00,VWS V14.01,2013-07-29 06:38:00,
2013-07-28 23:43:00,56.8,51.7,29.92,West,259,0.0,3.0,83,0.00,,---,0.00,0.00,VWS V14.01,2013-07-29 06:43:00,
2013-07-28 23:48:00,56.7,51.6,29.92,WNW,291,0.0,3.0,83,0.00,,---,0.00,0.00,VWS V14.01,2013-07-29 06:48:00,
2013-07-28 23:53:00,56.5,51.4,29.92,WNW,290,0.0,3.0,83,0.00,,---,0.00,0.00,VWS V14.01,2013-07-29 06:53:00,
2013-07-28 23:58:00,56.4,51.3,29.92,WNW,290,0.0,0.0,83,0.00,,---,0.00,0.00,VWS V14.01,2013-07-29 06:58:00,